loading
|

CZ-4 DEB, 35325

Orbit data source: Space-Track

CZ-4 DEB, 35325 is space debris in SSO originally from a launch on Thu, 14 Oct 1999 UTC launched from the Taiyaun Space Center, China (TSC). Debris objects in space refer to the collection of defunct objects orbiting the Earth. Examples of debris include non-operational satellites, rocket bodies, and fragments generated from explosions, collisions, or faulty payload assembly.

Loading next visibility...
Next conjunction unknown
Loading greatness...
CZ-4 DEB details
Identifier
35325, 1999-057SD
Orbit
SSO
Last TLE update1 day ago
Origin
Flag of CNCNSA (CN / PRC)
ManufacturerUnknown
MissionSpacecraft
Bus & MotorUnknown bus, Unknown motor
MassUnknown
Launch date (UTC)
Icon of a cake. It is the launch day of the satellite!1999-10-14 (25 years ago)
Launch vehicleUnknown
Launch site
Taiyaun Space Center, China (TSC)
Object type
Payload
Rocket body
Debris
Shape & HBRUnknown
Radar Cross SectionSmall (<0.1 m²)

Expand to show TLE details & history

TLE from 1 day ago
0 CZ-4 DEB
1 35325U 99057SD  24287.59792788  .00059751  00000-0  36998-2 0  9990
2 35325  98.4227  47.9978 0009263 130.5404 229.6630 15.09509089611094
Epoch: 2024-10-13T14:21Z
Definitive object data (Epoch: 2024-10-13T14:21:00.968Z)
Latitude-0.00009°
Longitude170.10666°
Altitude544.895 km
Speed7.587 km/s
True Right ascension03h 11m 59s
True Declination0° 00' 00"
Sunlit
Object was in full shadow at TLE epoch
Predictive object data (real-time)
Latitude54.31594°
Longitude3.05594°
Altitude539.891 km
Speed7.601 km/s
Apparent Right ascension18h 59m 53s
Apparent Declination12° 25' 42"
Sunlit
Object is in daylight
Predictive observer data (real-time)
Local Sidereal Time09:19:55
Azimuth39.554° NE
Elevation-28.386°
Doppler factor1
Orbital elements
Apogee541.128 km
Perigee528.322 km
Semi-major axis6,912.862 km
Eccentricity0.0009263
Inclination98.4227°
RAAN47.9978°
Arg. of periapsis130.5404°
True anomaly229.58215°
Mean anomaly229.663°
Eccentric anomaly229.62257°
Mean motion3.77621 °/min
BSTAR0.0036998
Period95.33 mins
No data available

CZ-4 DEB Visibility forecast

Observer location: 39.9160978°, -105.1181434

Span
Click to sort rows by Start time (UTC) header in descending order
Start Az.
Max El. time (UTC)
Max El. Az.
Max El.
End time (UTC)
End Az.
7 mins2024-10-14 21:07:50.207Z12.826° NNE2024-10-14 21:11:50.207Z198.815° SSW43.725°2024-10-14 21:14:50.207Z194.909° SSW
5 mins2024-10-15 07:51:50.207Z133.278° SE2024-10-15 07:53:50.207Z61.314° ENE36.422°2024-10-15 07:56:50.207Z0.67° NNE